Location: Unspecified
(0.0000°N, 0.0000°E)
Time: 14:53:53
(UTC+00:00)

CZ-6A R/B - Visible Passes

Search period start: 13 November 2025 00:00
Search period end: 23 November 2025 00:00
Orbit: 839 x 989 km, 86.5° (Epoch: 12 November)

Date Brightness Start Highest point End Pass type
(mag) Time Alt. Az. Time Alt. Az. Time Alt. Az.
13 Nov ? 03:38:31 10° SSE 03:43:40 41° E 03:48:53 10° NNE visible
14 Nov ? 03:45:08 10° SSE 03:50:32 57° E 03:56:02 10° NNE visible
15 Nov ? 03:51:53 10° S 03:57:24 80° E 04:02:47 11° N visible
16 Nov ? 03:58:46 10° S 04:04:17 74° W 04:07:19 28° N visible
17 Nov ? 04:05:47 10° SSW 04:11:09 53° W 04:12:35 42° NW visible
18 Nov ? 02:32:18 10° ESE 02:34:48 13° E 02:34:56 13° E visible
18 Nov ? 04:12:58 10° SSW 04:18:03 38° W 04:18:11 37° W visible
19 Nov ? 02:37:51 10° SE 02:40:43 18° ESE 02:40:43 18° ESE visible
19 Nov ? 04:20:18 10° SSW 04:24:00 26° WSW 04:24:00 26° WSW visible
20 Nov ? 02:43:56 10° SE 02:46:40 22° ESE 02:46:40 22° ESE visible
20 Nov ? 04:27:53 10° SW 04:29:57 17° WSW 04:29:57 17° WSW visible
21 Nov ? 02:50:18 10° SSE 02:52:44 24° SE 02:52:44 24° SE visible
21 Nov ? 04:35:55 10° WSW 04:36:02 10° WSW 04:36:02 10° WSW visible
22 Nov ? 02:56:51 10° SSE 02:58:54 23° SSE 02:58:54 23° SSE visible
